This is the latest recevied weather packets stored in our database for station/object KE8KMM. If no packets are shown the sender has not sent any weather packets the latest 10 day(s).
| Time | Temp. | Humidity | Pressure | Rain* | Wind** | Luminosity | Snow |
|---|---|---|---|---|---|---|---|
| 1777956824 | 17.78° C | 74% | 1005.1 hPa | 0 mm | - | 0 W/m² | - |
| 1777956522 | 17.22° C | 75% | 1005.1 hPa | 0 mm | - | 0 W/m² | - |
| 1777956218 | 16.67° C | 77% | 1005.3 hPa | 0 mm | - | 0 W/m² | - |
| 1777955915 | 16.67° C | 76% | 1005.3 hPa | 0 mm | - | 0 W/m² | - |
| 1777955611 | 16.67° C | 78% | 1005 hPa | 0 mm | - | 0 W/m² | - |
| 1777955307 | 17.22° C | 75% | 1005.2 hPa | 0 mm | - | 0 W/m² | - |
| 1777955005 | 16.67° C | 75% | 1005.1 hPa | 0 mm | - | 0 W/m² | - |
| 1777954701 | 16.67° C | 78% | 1005.1 hPa | 0 mm | - | 0 W/m² | - |
| 1777954399 | 16.67° C | 79% | 1005.2 hPa | 0 mm | - | 0 W/m² | - |
| 1777954096 | 16.67° C | 79% | 1005.2 hPa | 0 mm | - | 0 W/m² | - |
| 1777953794 | 17.22° C | 79% | 1005.3 hPa | 0 mm | - | 0 W/m² | - |
| 1777953490 | 17.78° C | 73% | 1005.2 hPa | 0 mm | - | 0 W/m² | - |
| 1777953185 | 17.22° C | 74% | 1005.1 hPa | 0 mm | - | 0 W/m² | - |
| 1777952883 | 17.22° C | 75% | 1005.2 hPa | 0 mm | - | 0 W/m² | - |
| 1777952580 | 17.78° C | 74% | 1005.3 hPa | 0 mm | - | 0 W/m² | - |
| 1777952276 | 18.33° C | 71% | 1005.2 hPa | 0 mm | - | 0 W/m² | - |
| 1777951974 | 18.33° C | 72% | 1005.3 hPa | 0 mm | - | 0 W/m² | - |
| 1777951672 | 18.33° C | 72% | 1005.3 hPa | 0 mm | - | 0 W/m² | - |
| 1777951367 | 18.33° C | 72% | 1005.3 hPa | 0 mm | - | 0 W/m² | - |
| 1777951065 | 18.33° C | 72% | 1005.2 hPa | 0 mm | - | 0 W/m² | - |
| 1777950761 | 18.33° C | 71% | 1005.3 hPa | 0 mm | - | 0 W/m² | - |
| 1777950458 | 18.33° C | 71% | 1005.2 hPa | 0 mm | - | 0 W/m² | - |
| 1777950154 | 17.78° C | 72% | 1005.3 hPa | 0 mm | - | 0 W/m² | - |
| 1777949850 | 17.78° C | 73% | 1005.2 hPa | 0 mm | - | 0 W/m² | - |
| 1777949549 | 18.33° C | 71% | 1005.3 hPa | 0 mm | - | 0 W/m² | - |
* Rain latest hour (hover to see other rain measurements)
** Current wind speed in m/s (hover to see current wind gust speed)